Regional Weather Roundup
Issued by NWS

Home | Current Version | Previous Version | Graphics & Text | Print | Product List | Glossary Off
Versions: 1 2 3 4 5 6 7 8 9 10 11 12 13 14 15 16 17 18 19 20 21 22 23 24 25 26 27 28 29 30 31 32 33 34 35 36 37 38 39 40 41 42 43 44 45 46 47 48 49 50

000
ASUS43 KTOP 282159
RWRKS

WEATHER ROUNDUP FOR KANSAS
NATIONAL WEATHER SERVICE GOODLAND KS
500 PM CDT TUE JUL 28 2015

NOTE:  "FAIR" INDICATES FEW OR NO CLOUDS BELOW 12,000 FEET WITH NO
SIGNIFICANT WEATHER AND/OR OBSTRUCTIONS TO VISIBILITY.

KSZ001>006-013>018-027>032-041>047-282300-
NORTHWEST KANSAS

CITY           SKY/WX    TMP DP  RH WIND       PRES   REMARKS
GOODLAND       SUNNY     85  43  22 NE14      30.08S
HAYS           SUNNY     88  64  45 N20G25    29.93S
HILL CITY      SUNNY     87  53  31 NE20G28   29.99S
RUSSELL        SUNNY     89  71  55 N21G26    29.88S HX  95
$$

KSZ061>065-074>080-084>089-282300-
SOUTHWEST KANSAS

CITY           SKY/WX    TMP DP  RH WIND       PRES   REMARKS
DODGE CITY     SUNNY     89  65  44 N12G18    29.96S
ELKHART          N/A     84  57  39 MISG        N/A
GARDEN CITY    PTSUNNY   83  56  39 NE20      30.00S
GREAT BEND     SUNNY     97  72  44 NW13G22   29.86S HX 105
LIBERAL        MOSUNNY   90  66  45 NE17G25   29.96F
$$

KSZ066>073-081>083-090>101-282300-
SOUTHEAST KANSAS

CITY           SKY/WX    TMP DP  RH WIND       PRES   REMARKS
CHANUTE        SUNNY     94  71  47 S17G28    29.90F HX 101
COFFEYVILLE    SUNNY     94  72  48 S18G28    29.90F HX 102
HUTCHINSON     SUNNY    103  67  31 S18G25    29.85S HX 108
MEDICINE LODGE   N/A    100  69  36 SW14      29.84S HX 106
NEWTON         SUNNY     99  70  39 S23G29    29.89F HX 105
PARSONS        SUNNY     93  73  52 S14       29.91F HX 102
WICHITA INTL   SUNNY     99  69  37 S20G29    29.85F HX 105
WICHITA JABRA  SUNNY     99  71  40 S17G28    29.86F HX 107
WINFIELD       SUNNY     96  72  45 S20G28    29.89S HX 104
$$

KSZ007>012-019>026-033>040-048>060-102>105-282300-
NORTHEAST KANSAS

CITY           SKY/WX    TMP DP  RH WIND       PRES   REMARKS
CONCORDIA      SUNNY     91  78  65 N16G26    29.86R HX 106
EMPORIA        SUNNY     98  70  40 S22       29.87S HX 105
LAWRENCE       SUNNY     96  72  45 S13       29.86S HX 104
MANHATTAN      SUNNY    100  72  40 S16G23    29.82F HX 109
OLATHE IND     SUNNY     95  70  44 S17G23    29.89F HX 101
OLATHE EXE     SUNNY     93  72  50 S13G22    29.88F HX 101
SALINA         MOSUNNY  103  69  33 S14G23    29.82S HX 110
TOPEKA BILLARD SUNNY     96  71  44 S14       29.85S HX 103
TOPEKA FORBES  SUNNY     98  69  38 S18G25    29.85F HX 104
$$


USA.gov is the U.S. government's official web portal to all federal, state and local government web resources and services.